Tracking 33744 objects as of 12-Apr-2026
HD Live streaming from Space Station
objects crossing your sky now

STARLINK-5745

Track STARLINK-5745 now!
10-day predictions
STARLINK-5745 is classified as:


NORAD ID: 55575
Int'l Code: 2023-020G
Perigee: 494.0 km
Apogee: 496.4 km
Inclination: 43.0 °
Period: 94.4 minutes
Semi major axis: 6866 km
RCS: Unknown
Launch date: February 12, 2023
Source: United States (US)
Launch site: AIR FORCE EASTERN TEST RANGE (AFETR)
Your satellite tracking list
Your tracking list is empty




NASA's NSSDC Master Catalog

Two Line Element Set (TLE):
1 55575U 23020G   26101.94395868 -.00000618  00000-0 -13764-4 0  9998
2 55575  43.0039 180.3749 0001765 279.5976  80.4675 15.25905557173964
Source of the keplerian elements: AFSPC